Weather History for Waupaca, WI

Change the Weather History Date:

Friday, September 5, 2014

  Actual Average Record
Temperature  
Mean Temperature 69 °F -  
Max Temperature 78 °F 76 °F 93 °F (1990)
Min Temperature 58 °F 52 °F 38 °F (1957)
Cooling Degree Days 4    
Growing Degree Days 19 (Base 50)    
Moisture  
Dew Point 62 °F    
Average Humidity 76    
Maximum Humidity 95    
Minimum Humidity 60    
Precipitation  
Precipitation 0.02 in - - ()
Sea Level Pressure  
Sea Level Pressure 29.96 in    
Wind  
Wind Speed 8 mph (West)    
Max Wind Speed 16 mph    
Max Gust Speed 23 mph    
Visibility 10 miles    
Events Rain    
Averages and records for this station are not official NWS values.
T = Trace of Precipitation, MM = Missing Value Source: NWS Daily Summary

Daily Weather History Graph

Daily Weather History Graph

Search for Another Location

Airport:

Trip Planner

Search our weather history database for the weather conditions in past years. The results will help you decide how hot, cold, wet, or windy it might be!

Date:

Astronomy

Sep. 05, 2014 Rise Set
Actual Time 6:23 AM CDT 7:25 PM CDT
Civil Twilight 5:53 AM CDT 7:54 PM CDT
Nautical Twilight 5:18 AM CDT 8:30 PM CDT
Astronomical Twilight 4:41 AM CDT 9:07 PM CDT
Moon 4:59 PM CDT (9/5) 2:11 AM CDT (9/5)
Length of Visible Light 14h 00m
Length of Day
13h 01m
Waxing Gibbous, 84% of the Moon is Illuminated
Sep 5
Waxing Gibbous
Sep 8
Full
Sep 15
Last Quarter
Sep 24
New
Oct 1
First Quarter

Hourly Weather History & Observations

Time (CDT) Temp. Dew Point Humidity Pressure Visibility Wind Dir Wind Speed Gust Speed Precip Events Conditions
12:15 AM 72.9 °F 71.2 °F 95% 29.80 in 10.0 mi South 6.9 mph - N/A   Clear
12:35 AM 74.7 °F 72.9 °F 94% 29.79 in 10.0 mi SSW 6.9 mph - N/A   Scattered Clouds
12:55 AM 75.7 °F 73.6 °F 93% 29.78 in 10.0 mi SSW 8.1 mph - N/A   Scattered Clouds
1:15 AM 76.3 °F 74.1 °F 93% 29.79 in 10.0 mi SSW 3.5 mph - N/A   Clear
1:35 AM 76.8 °F 74.3 °F 92% 29.80 in 10.0 mi South 6.9 mph - N/A   Scattered Clouds
1:55 AM 77.2 °F 74.5 °F 91% 29.80 in 10.0 mi South 4.6 mph - N/A   Scattered Clouds
2:15 AM 77.2 °F 74.7 °F 92% 29.80 in 10.0 mi South 3.5 mph - N/A   Mostly Cloudy
2:35 AM 77.9 °F 75.2 °F 91% 29.81 in 10.0 mi SW 3.5 mph - N/A   Mostly Cloudy
2:55 AM 78.1 °F 75.4 °F 91% 29.81 in 10.0 mi SW 6.9 mph - 0.01 in Rain Rain
3:15 AM 78.1 °F 75.4 °F 91% 29.81 in 10.0 mi SW 9.2 mph - N/A   Overcast
3:35 AM 78.1 °F 75.4 °F 91% 29.82 in 10.0 mi SW 5.8 mph - N/A   Overcast
3:55 AM 78.1 °F 75.7 °F 92% 29.84 in 10.0 mi WSW 3.5 mph - N/A   Overcast
4:15 AM 78.1 °F 75.7 °F 92% 29.84 in 10.0 mi West 5.8 mph - N/A   Overcast
4:35 AM 76.6 °F 73.4 °F 90% 29.85 in 10.0 mi West 8.1 mph - N/A   Overcast
4:55 AM 76.3 °F 72.9 °F 89% 29.87 in 7.0 mi West 9.2 mph - N/A Rain Rain
5:15 AM 74.5 °F 72.1 °F 92% 29.88 in 5.0 mi West 8.1 mph - 0.01 in Rain Light Rain
5:35 AM 73.8 °F 71.8 °F 93% 29.90 in 10.0 mi West 8.1 mph - 0.01 in   Overcast
5:55 AM 72.7 °F 70.5 °F 93% 29.90 in 10.0 mi West 6.9 mph 17.3 mph 0.01 in   Scattered Clouds
6:15 AM 72.0 °F 69.4 °F 92% 29.88 in 10.0 mi WNW 8.1 mph - N/A   Scattered Clouds
6:35 AM 71.1 °F 68.0 °F 90% 29.89 in 10.0 mi WNW 6.9 mph - N/A   Clear
6:55 AM 70.5 °F 67.1 °F 89% 29.91 in 10.0 mi West 5.8 mph - N/A   Clear
7:15 AM 69.4 °F 66.2 °F 89% 29.90 in 10.0 mi Calm Calm - N/A   Clear
7:35 AM 68.2 °F 65.7 °F 92% 29.93 in 10.0 mi SW 3.5 mph - N/A   Clear
7:55 AM 68.9 °F 67.1 °F 94% 29.94 in 10.0 mi WSW 4.6 mph - N/A   Clear
8:15 AM 71.1 °F 65.1 °F 81% 29.95 in 10.0 mi West 6.9 mph - N/A   Clear
8:35 AM 71.1 °F 63.7 °F 77% 29.94 in 10.0 mi West 9.2 mph - N/A   Clear
8:55 AM 71.1 °F 62.6 °F 75% 29.95 in 10.0 mi West 12.7 mph 17.3 mph N/A   Scattered Clouds
9:15 AM 69.8 °F 59.2 °F 69% 29.96 in 10.0 mi West 10.4 mph 16.1 mph N/A   Clear
9:35 AM 71.1 °F 60.8 °F 70% 29.96 in 10.0 mi WNW 11.5 mph 17.3 mph N/A   Clear
9:55 AM 71.1 °F 59.2 °F 66% 29.97 in 10.0 mi West 13.8 mph 20.7 mph N/A   Clear
10:15 AM 71.1 °F 59.0 °F 66% 29.98 in 10.0 mi West 11.5 mph 20.7 mph N/A   Clear
10:35 AM 70.9 °F 58.3 °F 64% 29.98 in 10.0 mi WNW 15.0 mph 21.9 mph N/A   Scattered Clouds
11:15 AM 71.2 °F 56.8 °F 60% 29.99 in 10.0 mi WNW 13.8 mph 20.7 mph N/A   Clear
11:35 AM 70.0 °F 56.8 °F 63% 29.98 in 10.0 mi WNW 10.4 mph 17.3 mph N/A   Clear
11:55 AM 69.4 °F 55.9 °F 62% 29.97 in 10.0 mi WNW 10.4 mph 17.3 mph N/A   Clear
12:15 PM 71.1 °F 56.8 °F 61% 29.97 in 10.0 mi WNW 16.1 mph 21.9 mph N/A   Clear
12:35 PM 70.9 °F 56.5 °F 60% 29.97 in 10.0 mi WNW 12.7 mph 23.0 mph N/A   Clear
12:55 PM 71.4 °F 56.7 °F 60% 29.98 in 10.0 mi NW 15.0 mph 20.7 mph N/A   Clear
1:15 PM 71.6 °F 56.8 °F 60% 29.99 in 10.0 mi NW 13.8 mph 18.4 mph N/A   Clear
1:35 PM 69.3 °F 55.4 °F 61% 30.02 in 10.0 mi WNW 10.4 mph 19.6 mph N/A   Clear
1:55 PM 69.6 °F 55.8 °F 61% 30.02 in 10.0 mi WNW 15.0 mph 19.6 mph N/A   Clear
2:15 PM 69.3 °F 55.2 °F 61% 30.02 in 10.0 mi NW 11.5 mph - N/A   Clear
2:35 PM 68.5 °F 55.0 °F 62% 30.01 in 10.0 mi WNW 12.7 mph 18.4 mph N/A   Clear
2:55 PM 67.5 °F 54.1 °F 62% 30.02 in 10.0 mi WNW 15.0 mph 23.0 mph N/A   Clear
3:15 PM 67.5 °F 54.1 °F 62% 30.02 in 10.0 mi NW 13.8 mph 23.0 mph N/A   Clear
3:35 PM 67.5 °F 54.1 °F 62% 30.02 in 10.0 mi WNW 10.4 mph 20.7 mph N/A   Clear
3:55 PM 67.5 °F 54.0 °F 62% 30.02 in 10.0 mi WNW 15.0 mph 23.0 mph N/A   Clear
4:15 PM 66.9 °F 53.8 °F 63% 30.03 in 10.0 mi NW 13.8 mph 18.4 mph N/A   Clear
4:35 PM 67.5 °F 54.3 °F 63% 30.04 in 10.0 mi WNW 9.2 mph - N/A   Clear
4:55 PM 67.6 °F 53.8 °F 61% 30.04 in 10.0 mi WNW 9.2 mph 17.3 mph N/A   Clear
5:15 PM 67.1 °F 54.3 °F 63% 30.05 in 10.0 mi WNW 8.1 mph - N/A   Clear
5:35 PM 66.7 °F 54.0 °F 63% 30.05 in 10.0 mi WNW 10.4 mph - N/A   Clear
5:55 PM 65.8 °F 54.0 °F 65% 30.05 in 10.0 mi WNW 9.2 mph - N/A   Clear
6:15 PM 65.5 °F 54.5 °F 68% 30.04 in 10.0 mi WNW 10.4 mph 16.1 mph N/A   Clear
6:35 PM 64.8 °F 54.0 °F 68% 30.04 in 10.0 mi WNW 10.4 mph - N/A   Clear
6:55 PM 64.2 °F 54.5 °F 71% 30.02 in 10.0 mi NW 5.8 mph - N/A   Clear
7:15 PM 64.0 °F 55.6 °F 74% 30.02 in 10.0 mi WNW 8.1 mph - N/A   Clear
7:35 PM 63.7 °F 55.6 °F 75% 30.02 in 10.0 mi WNW 4.6 mph - N/A   Clear
7:55 PM 63.3 °F 55.4 °F 75% 30.03 in 10.0 mi NW 6.9 mph - N/A   Mostly Cloudy
8:15 PM 63.0 °F 55.2 °F 76% 30.03 in 10.0 mi NW 8.1 mph - N/A   Mostly Cloudy
8:35 PM 62.8 °F 54.9 °F 75% 30.04 in 10.0 mi NW 6.9 mph - N/A   Scattered Clouds
9:15 PM 62.4 °F 53.6 °F 73% 30.08 in 10.0 mi NW 8.1 mph - N/A   Clear
9:35 PM 62.2 °F 54.0 °F 74% 30.09 in 10.0 mi NW 5.8 mph - N/A   Clear
9:55 PM 62.1 °F 54.1 °F 75% 30.11 in 10.0 mi NW 5.8 mph - N/A   Clear
10:15 PM 61.7 °F 54.3 °F 77% 30.11 in 10.0 mi WNW 4.6 mph - N/A   Clear
10:35 PM 61.3 °F 54.5 °F 78% 30.11 in 10.0 mi WNW 4.6 mph - N/A   Clear
11:15 PM 60.1 °F 54.0 °F 80% 30.12 in 10.0 mi WNW 4.6 mph - N/A   Clear
11:55 PM 58.8 °F 53.8 °F 83% 30.12 in 10.0 mi West 3.5 mph - N/A   Clear